Tracking 23731 objects as of 26-Sep-2021
HD Live streaming from Space Station
objects crossing your sky now

STARLINK-1437

Track STARLINK-1437 now!
10-day predictions
STARLINK-1437 is classified as:


NORAD ID: 45714
Int'l Code: 2020-035BK
Perigee: 552.8 km
Apogee: 555.9 km
Inclination: 53.1 °
Period: 95.6 minutes
Semi major axis: 6925 km
RCS: Unknown
Launch date: June 4, 2020
Source: United States (US)
Launch site: AIR FORCE EASTERN TEST RANGE (AFETR)
aabbcc
Your satellite tracking list
Your tracking list is empty




NASA's NSSDC Master Catalog

Two Line Element Set (TLE):
1 45714U 20035BK  21268.92466290  .00000481  00000-0  51214-4 0  9998
2 45714  53.0557 134.9727 0002240  80.9297 279.1945 15.06406502 73707
Source of the keplerian elements: AFSPC